n
n

Club ULM Alpes Mans'Ailes

Base ULM de Piacé (72)

Météo:

Données PiouPiou :  ICI

METAR (Le Mans):

METAR de LFRM (émis le mardi 15 octobre 2019 07:30 UTC):
LFRM 150730Z AUTO 22005KT 190V250 9999 FEW044 OVC160 12/11 Q1008 TEMPO 4500 -SHRA BKN020TCU

Coordonées GPS :

Lattitude : 48° 16' 16" Nord
Longitude : 00° 06' 15" Est
Altitude : 305 ft (93 m)
[11hPa]

Le Président

 Philippe LEBRETON


  Pour tout renseignement sur les baptêmes; contactez M. LECOURT -> 06.83.16.36.73 <-

  ou posez votre question par mail : -> ICI <-


    A la Une    

Reportage TV

Journée découverte du paramoteur en Sarthe avec LMTV


Alpes Mans'Ailes
Copyright "Alpes Mans'Ailes" 2017, tous droits réservés
Il y a eu 34598 visiteurs sur le site depuis le 08/01/2018